Regional Weather Roundup
Issued by NWS

Home | Current Version | Previous Version | Text Only | Print | Product List | Glossary On
Versions: 1 2 3 4 5 6 7 8 9 10 11 12 13 14 15 16 17 18 19 20 21 22 23 24 25 26 27 28 29 30 31 32 33 34 35 36 37 38 39 40 41 42 43 44 45 46 47 48 49 50
000
ASUS43 KOAX 031910
RWRNE

WEATHER ROUNDUP FOR NEBRASKA
NATIONAL WEATHER SERVICE OMAHA NE
200 PM CDT WED JUN 03 2015

NOTES: SATELLITE DATA IS BEING USED TO AUGMENT CLOUD COVER ABOVE
       12000 FEET.
       "FAIR" INDICATES FEW OR NO CLOUDS BELOW 12,000 FEET WITH NO
       SIGNIFICANT WEATHER AND/OR OBSTRUCTIONS TO VISIBILITY.

  * THESE STATIONS DO NOT REPORT WEATHER SUCH AS RAIN...SNOW OR FOG.

NEZ001>004-019>022-054>056-032000-
NEBRASKA PANHANDLE

CITY           SKY/WX    TMP DP  RH WIND       PRES   REMARKS
SCOTTSBLUFF    SUNNY     75  55  49 SE10      30.00F
ALLIANCE       SUNNY     71  56  58 E9G18     30.00F
CHADRON        SUNNY     70  57  63 E9        30.01S
KIMBALL          N/A    N/A N/A N/A MISG        N/A
SIDNEY           N/A    N/A N/A N/A MISG      30.03F
$$

NEZ057>060-069>072-079>082-032000-
SOUTHWEST NEBRASKA

CITY           SKY/WX    TMP DP  RH WIND       PRES   REMARKS
NORTH PLATTE   SUNNY     76  60  57 VRB5      29.97F
IMPERIAL       MOSUNNY   76  58  53 NE7       29.98S
LEXINGTON      MOSUNNY   75  63  67 N6        29.95F
MCCOOK         PTSUNNY   80  60  50 E9        29.93S
OGALLALA       MOSUNNY   75  59  57 NE7       29.99S
$$

NEZ005>010-023>029-035>040-094-032000-
NORTH CENTRAL NEBRASKA

CITY           SKY/WX    TMP DP  RH WIND       PRES   REMARKS
VALENTINE      SUNNY     71  57  61 VRB6      29.99R
AINSWORTH      SUNNY     72  58  62 NW8       29.98S
BROKEN BOW     MOSUNNY   78  62  57 NE3       29.96R
O`NEILL        MOSUNNY   77  62  59 N6        29.95R
ORD            PTSUNNY   77  61  57 E8        29.93R
THEDFORD       MOSUNNY   75  59  56 NE12      29.99S
$$

NEZ041-046>049-061>064-073>077-083>087-032000-
SOUTH CENTRAL NEBRASKA

CITY           SKY/WX    TMP DP  RH WIND       PRES   REMARKS
GRAND ISLAND   MOSUNNY   76  60  57 CALM      29.95R
AURORA         MOSUNNY   75  63  66 CALM      29.95R
HASTINGS       MOSUNNY   75  63  66 E9        29.94R
HEBRON         MOSUNNY   78  63  60 NE7       29.90S
HOLDREGE       SUNNY     79  56  44 N3        29.93S
KEARNEY *      MOSUNNY   75  61  60 N3        29.94F
YORK           MOSUNNY   73  64  73 CALM      29.95S
$$

NEZ011>018-030>034-042>045-032000-
NORTHEAST NEBRASKA

CITY           SKY/WX    TMP DP  RH WIND       PRES   REMARKS
NORFOLK        PTSUNNY   78  63  59 NE6       29.92S
ALBION         PTSUNNY   78  61  55 SE5       29.93R
BLAIR          PTSUNNY   73  62  68 SW6       29.92S
COLUMBUS *     PTSUNNY   75  61  60 CALM      29.94R
FREMONT        MOSUNNY   77  61  57 CALM      29.92S
TEKAMAH        MOSUNNY   79  61  53 VRB3      29.91S
WAYNE          MOSUNNY   78  63  61 N3        29.91F
$$

NEZ050>053-065>068-078-088>093-032000-
SOUTHEAST NEBRASKA

CITY           SKY/WX    TMP DP  RH WIND       PRES   REMARKS
LINCOLN        CLOUDY    76  62  62 NW6       29.93S
OMAHA EPPLEY   CLOUDY    74  64  71 VRB6      29.92R
BEATRICE       PTSUNNY   74  65  74 CALM      29.91F
FALLS CITY     CLOUDY    71  65  81 S15G23    29.89R
NEBRASKA CITY  CLOUDY    71  65  81 S5        29.93R
PLATTSMOUTH    CLOUDY    72  64  74 NW3       29.93R
$$

NEZ044-045-051>053-067-032000-
OMAHA AREA

CITY           SKY/WX    TMP DP  RH WIND       PRES   REMARKS
OMAHA EPPLEY   CLOUDY    74  64  71 VRB6      29.92R
BLAIR          PTSUNNY   73  62  68 SW6       29.92S
FREMONT        MOSUNNY   77  61  57 CALM      29.92S
MILLARD        PTSUNNY   74  65  73 CALM      29.91S
OFFUTT AFB     CLOUDY    73  64  73 NW9       29.91S
PLATTSMOUTH    CLOUDY    72  64  74 NW3       29.93R
WAHOO          FAIR      77  64  64 CALM      29.91F
$$


USA.gov is the U.S. government's official web portal to all federal, state and local government web resources and services.